Location: Cicognara
(44.9500°N, 10.4667°E)
Time: 09:13:37
(UTC+00:00)

USA 215 - Pass Details

Date: 20 June 2021
Orbit: 1100 x 1107 km, 123.0° (Epoch: 01 August)

Event Time Altitude Azimuth Distance (km) Brightness Sun altitude
Rises 22:10:48 0° 51° (NE) 3,923 6.5 -19.8°
Reaches altitude 10° 22:13:19 10° 54° (NE) 2,962 5.8 -19.9°
Maximum altitude 22:19:50 70° 138° (SE) 1,164 3.2 -20.3°
Enters shadow 22:25:31 14° 220° (SW) 2,643 4.9 -20.5°
